Regional Weather Roundup
Issued by NWS Little Rock, AR

Home | Current Version | Previous Version | Text Only | Print | Product List | Glossary On
Versions: 1 2 3 4 5 6 7 8 9 10 11 12 13 14 15 16 17 18 19 20 21 22 23 24 25 26 27
000
ASUS44 KLZK 210905
RWRLZK

WEATHER ROUNDUP FOR ARKANSAS
NATIONAL WEATHER SERVICE LITTLE ROCK AR
400 AM CDT MON APR 21 2014

NOTE: "FAIR" INDICATES FEW OR NO CLOUDS BELOW 12,000 FEET WITH NO
SIGNIFICANT WEATHER AND/OR OBSTRUCTIONS TO VISIBILITY.

ARZ001-003-010-029-211000-
NORTHWEST ARKANSAS

CITY           SKY/WX    TMP DP  RH WIND       PRES   REMARKS
FAYETTEVILLE   CLOUDY    62  58  86 SW3       30.05S
FORT SMITH     CLOUDY    63  61  93 E3        30.02F FOG
HARRISON       CLOUDY    64  52  64 CALM      30.06R
BENTONVILLE    CLOUDY    61  55  82 CALM      30.06S
ROGERS         CLOUDY    61  58  90 CALM      30.06S
SILOAM SPGS    CLOUDY    61  54  77 S5        30.05F
HIGHFILL       CLOUDY    61  58  90 S3        30.04S
$$

ARZ004-005-016-211000-
NORTH CENTRAL ARKANSAS

CITY           SKY/WX    TMP DP  RH WIND       PRES   REMARKS
BATESVILLE     CLOUDY    64  50  59 CALM      30.03S
FLIPPIN        CLOUDY    63  48  59 CALM      30.05R
MTN HOME       CLOUDY    63  52  67 S5        30.05R
$$

ARZ040-041-211000-
WEST CENTRAL ARKANSAS

CITY           SKY/WX    TMP DP  RH WIND       PRES   REMARKS
MENA           CLOUDY    66  66 100 SW3       30.02F
MOUNT IDA      CLOUDY    60  59  96 CALM      30.00F
$$

ARZ009-017-025-026-028-211000-
NORTHEAST ARKANSAS

CITY           SKY/WX    TMP DP  RH WIND       PRES   REMARKS
CORNING        FAIR      63  52  67 SW3       30.05S
JONESBORO      PTCLDY    57  52  83 CALM      30.05S
NEWPORT        MOCLDY    62  53  72 SE8       30.05S
WALNUT RIDGE   MOCLDY    63  52  67 S6        30.05R
BLYTHEVILLE    CLOUDY    61  50  67 S5        30.06S
$$

ARZ022-023-033-042-044-211000-
CENTRAL ARKANSAS

CITY           SKY/WX    TMP DP  RH WIND       PRES   REMARKS
LITTLE ROCK    CLOUDY    64  53  67 SE5       30.03F
N LITTLE ROCK    N/A     66  55  67 S7        30.03F
JACKSONVILLE   CLOUDY    66  54  63 S5        30.03F
SEARCY         CLOUDY    63  53  69 W5        30.05S
HOT SPRINGS    CLOUDY    63  57  81 NW3       30.04S
RUSSELLVILLE   CLOUDY    62  59  90 CALM      30.03S
CLINTON        FAIR      61  57  88 CALM      30.05S
$$

ARZ036-211000-
EAST ARKANSAS

CITY           SKY/WX    TMP DP  RH WIND       PRES   REMARKS
WEST MEMPHIS   PTCLDY    60  53  77 S7        30.05S HAZE
$$

ARZ050-053-066-070-073-211000-
SOUTHWEST ARKANSAS

CITY           SKY/WX    TMP DP  RH WIND       PRES   REMARKS
ARKADELPHIA    LGT RAIN  62  61  97 CALM      30.03F
CAMDEN         MOCLDY    59  55  88 MISG      30.04S
TEXARKANA      LGT RAIN  64  60  87 NW8       30.06R
EL DORADO      PTCLDY    58  57  97 S3        30.05S
DE QUEEN       CLOUDY    62  62 100 SE3       30.00F FOG
$$

ARZ056-057-069-211000-
SOUTHEAST ARKANSAS

CITY           SKY/WX    TMP DP  RH WIND       PRES   REMARKS
PINE BLUFF     CLOUDY    61  53  75 SE3       30.05S
STUTTGART      CLOUDY    64  52  63 SE6       30.05F
MONTICELLO     MOCLDY    64  51  62 S6        30.05S

$$





USA.gov is the U.S. government's official web portal to all federal, state and local government web resources and services.